Miscellaneous Local Product
Issued by NWS North Platte, NE

Home | Current Version | Previous Version | Graphics & Text | Print | Product List | Glossary On
Versions: 1 2 3 4 5 6 7 8 9 10 11 12 13 14 15 16 17 18 19 20 21 22 23 24 25 26 27 28 29 30 31 32 33 34 35 36 37 38 39 40 41 42 43 44 45 46 47 48 49 50
000
AXUS43 KLBF 270510
MISLBF


WESTERN AND NORTH CENTRAL NEBRASKA HOURLY WEATHER ROUNDUP
NATIONAL WEATHER SERVICE NORTH PLATTE NE
1200 AM CDT WED MAY 27 2015

***STATIONS NOT REPORTING VARIABLES SUCH AS SKY/WEATHER OR
PRESSURE ARE PROVIDED BY THE NEBRASKA DEPARTMENT OF
ROADS...RAWS...AND APRS NETWORKS...AND ARE NOT UNDER
NATIONAL WEATHER SERVICE QUALITY CONTROL***

...OBSERVATIONS IN AND NEAR THE EASTERN PANHANDLE OF NEBRASKA...

CITY           SKY/WX    TMP DP  RH WIND       PRES   REMARKS
PINE RIDGE     CLOUDY    53  47  79 CALM      30.02R
CHADRON        CLOUDY    58  50  75 SE6       30.00F
ALLIANCE       MOCLDY    52  49  89 SE8       30.02F
SIDNEY         PTCLDY    50  48  93 S7        30.06S
WHITECLAY        N/A     52  46  80 SE8         N/A
BIG SPRINGS      N/A     57  51  79 SE12        N/A
$$

...OBSERVATIONS IN NORTH CENTRAL NEBRASKA...

CITY           SKY/WX    TMP DP  RH WIND       PRES   REMARKS
VALENTINE      CLEAR     53  49  86 W5        30.01R
THEDFORD       PTCLDY    56  47  73 SW7       30.03F
AINSWORTH      CLEAR     56  50  81 SW5       30.01S
O`NEILL        CLEAR     58  53  83 W7        29.97S
ORD            CLEAR     55  48  77 CALM      29.98R
BROKEN BOW     CLEAR     57  49  74 W6        30.01S
BROWNLEE         N/A     62  42  47 CALM        N/A
VALENTINE NWR    N/A     54  47  77 W3          N/A
SPRINGVIEW       N/A     52  49  90 CALM        N/A
HALSEY           N/A     58  47  66 SW5         N/A
BREWSTER         N/A     56  51  80 CALM        N/A
ROSE             N/A     59  53  81 S3          N/A
NEWPORT          N/A     53  51  94 SW3         N/A
SARGENT          N/A     54  50  87 CALM        N/A
COMSTOCK         N/A     58  53  80 W7          N/A
EWING            N/A     55  52  90 CALM        N/A
$$

...OBSERVATIONS IN SOUTHWEST NEBRASKA AND FAR NORTHEAST COLORADO...

CITY           SKY/WX    TMP DP  RH WIND       PRES   REMARKS
WRAY           FAIR      56  52  84 E7        30.05S
HOLYOKE        FAIR      55  50  82 SE7       30.05S
IMPERIAL       CLEAR     53  49  86 SE6       30.04S
OGALLALA       PTCLDY    57  49  75 SE6       30.04S
NORTH PLATTE   CLEAR     52  48  86 CALM      30.04S
MCCOOK         CLEAR     57  48  72 E3        30.02F
LEXINGTON      CLEAR     55  50  82 CALM      30.02F
PAXTON           N/A     54  49  82 CALM        N/A
GOTHENBURG       N/A     56  48  74 CALM        N/A
CALLAWAY         N/A     53  49  87 S3          N/A
$$

...NORTH PLATTE AREA...

CITY           SKY/WX    TMP DP  RH WIND       PRES   REMARKS
AIRPORT        CLEAR     52  48  86 CALM      30.04S
$$

...SOME WEATHER OBSERVATIONS FROM AROUND THE REGION...

CITY           SKY/WX    TMP DP  RH WIND       PRES   REMARKS
DENVER         MOCLDY    54  46  74 S13       30.07S
LARAMIE        CLOUDY    47  39  74 S9        30.13R
CHEYENNE       CLEAR     51  47  86 S5        30.10S
SCOTTSBLUFF    MOCLDY    57  52  83 E7        30.03S
RAPID CITY     PTCLDY    53  49  86 CALM      29.99S
PIERRE         PTCLDY    54  48  80 SE3       29.94R
WINNER         FAIR      64  49  57 SW6       29.97S
SIOUX FALLS    CLOUDY    58  51  78 CALM      29.90R
OMAHA          CLEAR     58  56  93 NW3       29.93R
GRAND ISLAND   CLEAR     56  48  74 W8        30.00R
KANSAS CITY    FAIR      65  58  78 W7        29.94S
WICHITA        PTCLDY    63  60  90 S5        29.99R
HAYS           CLEAR     57  48  72 CALM      30.03R
LIBERAL        MOCLDY    66  55  68 E8        30.05S
GOODLAND       CLEAR     54  51  90 SE6       30.06R
$$



USA.gov is the U.S. government's official web portal to all federal, state and local government web resources and services.